Mather AFB, CA

10:30 PM PST on December 11, 2017 (GMT -0800)
Mather

Weather History for KMHR - December, 2013

Change the Weather History Date:

Wednesday, December 25, 2013

  Actual Average Record
Temperature  
Mean Temperature 48 °F -  
Max Temperature 64 °F 50 °F 64 °F (2013)
Min Temperature 33 °F 37 °F 26 °F (2011)
Degree Days  
Heating Degree Days 16    
Moisture  
Dew Point 37 °F    
Average Humidity 73    
Maximum Humidity 100    
Minimum Humidity 40    
Precipitation  
Precipitation 0.00 in - - ()
Sea Level Pressure  
Sea Level Pressure 30.27 in    
Wind  
Wind Speed 3 mph (North)    
Max Wind Speed 6 mph    
Max Gust Speed -    
Visibility 9 miles    
Events      
Averages and records for this station are not official NWS values.
T = Trace of Precipitation, MM = Missing Value Source: NWS Daily Summary

Daily Weather History Graph

Daily Weather History Graph

Search for Another Location

Airport or City:

Trip Planner

Search our weather history database for the weather conditions in past years. The results will help you decide how hot, cold, wet, or windy it might be!

Date:

Astronomy

Dec. 25, 2013 Rise Set
Actual Time 7:21 AM PST 4:50 PM PST
Civil Twilight 6:51 AM PST 5:19 PM PST
Nautical Twilight 6:17 AM PST 5:53 PM PST
Astronomical Twilight 5:45 AM PST 6:25 PM PST
Moon No Moon Rise 11:53 AM PST (12/25)
Length of Visible Light 10h 28m
Length of Day
9h 28m
Waning Gibbous, 47% of the Moon is Illuminated
Dec 25
Waning Gibbous
Jan 1
New
Jan 7
First Quarter
Jan 15
Full
Jan 23
Last Quarter

Hourly Weather History & Observations

Time (PST) Temp. Windchill Dew Point Humidity Pressure Visibility Wind Dir Wind Speed Gust Speed Precip Events Conditions
2:45 AM 35.6 °F 31.7 °F 33.8 °F 93% 30.29 in 8.0 mi NE 4.6 mph - N/A   Clear
3:45 AM 35.6 °F 31.7 °F 32.0 °F 87% 30.29 in 10.0 mi NE 4.6 mph - N/A   Clear
4:45 AM 37.4 °F 34.9 °F 35.6 °F 93% 30.28 in 10.0 mi NNE 3.5 mph - N/A   Clear
5:45 AM 35.6 °F 30.7 °F 33.8 °F 93% 30.29 in 10.0 mi ENE 5.8 mph - N/A   Clear
6:48 AM 33.8 °F - 32.0 °F 93% 30.30 in 10.0 mi Calm Calm - N/A   Clear
7:50 AM 33.8 °F - 32.0 °F 93% 30.31 in 10.0 mi Calm Calm - N/A   Partly Cloudy
8:47 AM 41.0 °F - 35.6 °F 81% 30.33 in 10.0 mi Calm Calm - N/A   Clear
9:55 AM 48.2 °F - 39.2 °F 71% 33.03 in 10.0 mi Calm Calm - N/A   Clear
10:47 AM 55.4 °F - 39.2 °F 54% 30.33 in 10.0 mi NNW 3.5 mph - N/A   Clear
11:46 AM 57.2 °F - 39.2 °F 51% 30.31 in 10.0 mi NNW 5.8 mph - N/A   Clear
12:48 PM 59.0 °F - 39.2 °F 48% 30.27 in 10.0 mi NW 4.6 mph - N/A   Clear
1:45 PM 62.6 °F - 41.0 °F 45% 30.25 in 10.0 mi WNW 4.6 mph - N/A   Clear
2:48 PM 64.4 °F - 39.2 °F 40% 30.24 in 10.0 mi WNW 4.6 mph - N/A   Clear
3:45 PM 62.6 °F - 39.2 °F 42% 30.24 in 10.0 mi NW 5.8 mph - N/A   Clear
4:45 PM 57.2 °F - 39.2 °F 51% 30.22 in 10.0 mi Calm Calm - N/A   Clear
5:45 PM 51.8 °F - 39.2 °F 62% 30.22 in 10.0 mi Calm Calm - N/A   Clear
6:45 PM 44.6 °F - 37.4 °F 76% 30.24 in 10.0 mi Calm Calm - N/A   Clear
7:45 PM 42.8 °F - 37.4 °F 81% 30.25 in 8.0 mi Calm Calm - N/A   Clear
8:45 PM 37.4 °F - 35.6 °F 93% 30.26 in 7.0 mi Calm Calm - N/A   Clear
9:45 PM 37.4 °F - 37.4 °F 100% 30.26 in 7.0 mi Calm Calm - N/A   Clear
10:45 PM 37.4 °F - 35.6 °F 93% 30.27 in 8.0 mi Calm Calm - N/A   Clear